Weather reports worldwide

Advertisment
Gogerddan, United Kingdom (99150): temperature & dewpoint: 17.03.2017 14:00:00 - 23.03.2017 14:00:00 (GMT)Gogerddan, United Kingdom (99150): temperature -20cm & temperature -100cm: 17.03.2017 14:00:00 - 23.03.2017 14:00:00 (GMT)Gogerddan, United Kingdom (99150): precipitation: 17.03.2017 14:00:00 - 23.03.2017 14:00:00 (GMT)
Date & Time tt [°C] td [°C] tt -20cm [°C] tt -100cm [°C] rr [mm]
23.03.2017 14:00:00 - - - - 0,0
23.03.2017 13:00:00 10,5 4,0 - - 0,0
23.03.2017 12:00:00 9,8 3,5 - - 0,0
23.03.2017 11:00:00 9,2 3,9 - - 0,0
23.03.2017 10:00:00 7,2 3,7 - - 0,0
23.03.2017 09:00:00 5,7 4,1 8,2 8,7 0,0
23.03.2017 08:00:00 2,6 2,5 - - 0,0
23.03.2017 07:00:00 -0,8 -0,9 - - 0,0
23.03.2017 06:00:00 -1,9 -2,2 - - 0,0
23.03.2017 05:00:00 -2,0 -2,4 - - 0,0
23.03.2017 04:00:00 -1,5 -1,9 - - 0,0
23.03.2017 03:00:00 -1,0 -1,3 - - 0,0
23.03.2017 02:00:00 0,1 -0,2 - - 0,0
23.03.2017 01:00:00 0,2 -0,3 - - 0,0
23.03.2017 00:00:00 0,6 -0,1 - - 0,0
22.03.2017 23:00:00 2,0 0,8 - - 0,0
22.03.2017 22:00:00 3,6 2,3 - - 0,0
22.03.2017 21:00:00 4,6 3,0 - - 0,0
22.03.2017 20:00:00 4,4 2,8 - - 0,0
22.03.2017 19:00:00 5,4 1,9 - - 0,0
22.03.2017 18:00:00 7,4 2,8 - - 0,0
22.03.2017 17:00:00 7,4 2,8 - - 0,0
22.03.2017 16:00:00 8,1 2,9 - - 0,0
22.03.2017 15:00:00 8,6 2,9 - - 0,0
22.03.2017 14:00:00 8,9 4,2 - - 0,0
22.03.2017 13:00:00 8,5 3,9 - - 0,0
22.03.2017 12:00:00 7,9 4,7 - - 0,0
22.03.2017 11:00:00 7,3 3,8 - - 0,0
22.03.2017 10:00:00 6,6 3,5 - - 0,0
22.03.2017 09:00:00 6,1 3,2 8,4 8,7 0,0
22.03.2017 08:00:00 5,3 3,1 - - 0,0
22.03.2017 07:00:00 4,9 2,6 - - 0,0
22.03.2017 06:00:00 4,5 2,3 - - 0,0
22.03.2017 05:00:00 4,6 2,5 - - 0,0
22.03.2017 04:00:00 4,5 2,4 - - 0,0
22.03.2017 03:00:00 4,0 2,0 - - 0,2
22.03.2017 02:00:00 4,3 2,4 - - 0,2
22.03.2017 01:00:00 4,3 3,0 - - 1,2
22.03.2017 00:00:00 4,3 2,7 - - 1,4
21.03.2017 23:00:00 3,9 2,5 - - 3,4
21.03.2017 22:00:00 4,0 3,2 - - 2,8
21.03.2017 21:00:00 3,7 2,5 - - 2,8
21.03.2017 20:00:00 4,0 2,5 - - 0,4
21.03.2017 19:00:00 3,8 2,2 - - 0,0
21.03.2017 18:00:00 4,5 3,1 - - 1,0
21.03.2017 17:00:00 4,9 2,8 - - 0,0
21.03.2017 16:00:00 4,6 3,3 - - 0,2
21.03.2017 15:00:00 3,7 2,5 - - 2,0
21.03.2017 14:00:00 4,6 1,8 - - 0,0
21.03.2017 13:00:00 6,9 1,5 - - 0,0
21.03.2017 12:00:00 6,5 2,0 - - 0,2
21.03.2017 11:00:00 6,6 1,7 - - 0,2
21.03.2017 10:00:00 6,8 -0,8 - - 0,0
21.03.2017 09:00:00 6,3 -0,3 9,0 8,7 0,0
21.03.2017 08:00:00 5,4 -1,0 - - 0,0
21.03.2017 07:00:00 5,0 -1,1 - - 0,0
21.03.2017 06:00:00 5,1 -0,8 - - 0,0
21.03.2017 05:00:00 5,1 -1,7 - - 0,0
21.03.2017 04:00:00 4,9 -0,3 - - 0,0
21.03.2017 03:00:00 5,0 0,3 - - 0,0
21.03.2017 02:00:00 5,1 0,3 - - 0,0
21.03.2017 01:00:00 5,4 0,8 - - 0,0
21.03.2017 00:00:00 6,1 1,8 - - 0,0
20.03.2017 23:00:00 6,6 3,2 - - 0,0
20.03.2017 22:00:00 7,5 3,6 - - 0,0
20.03.2017 21:00:00 6,7 5,2 - - 0,2
20.03.2017 20:00:00 5,6 4,1 - - 2,0
20.03.2017 19:00:00 6,3 3,4 - - 0,4
20.03.2017 18:00:00 8,6 5,6 - - 0,0
20.03.2017 17:00:00 9,0 5,8 - - 0,0
20.03.2017 16:00:00 9,7 6,1 - - 0,0
20.03.2017 15:00:00 9,8 5,9 - - 0,0
20.03.2017 14:00:00 9,3 6,7 - - 0,0
20.03.2017 13:00:00 8,2 6,5 - - 0,4
20.03.2017 12:00:00 8,0 7,4 - - 1,6
20.03.2017 11:00:00 8,3 7,7 - - 2,4
20.03.2017 10:00:00 8,3 7,8 - - 2,0
20.03.2017 09:00:00 8,6 8,3 9,0 8,7 2,4
20.03.2017 08:00:00 8,3 8,0 - - 4,8
20.03.2017 07:00:00 9,8 9,5 - - 4,4
20.03.2017 06:00:00 9,9 9,5 - - 2,8
20.03.2017 05:00:00 10,0 9,4 - - 0,6
20.03.2017 04:00:00 10,2 9,3 - - 0,2
20.03.2017 03:00:00 10,3 9,2 - - 0,8
20.03.2017 02:00:00 10,4 9,7 - - 0,6
20.03.2017 01:00:00 10,8 9,7 - - 0,0
20.03.2017 00:00:00 10,5 9,5 - - 0,0
19.03.2017 23:00:00 10,6 9,4 - - 0,0
19.03.2017 22:00:00 10,4 9,4 - - 0,0
19.03.2017 21:00:00 10,6 9,5 - - 0,0
19.03.2017 20:00:00 10,2 9,7 - - 0,0
19.03.2017 19:00:00 10,1 9,6 - - 0,0
19.03.2017 18:00:00 10,4 9,8 - - 0,0
19.03.2017 17:00:00 10,4 9,8 - - 0,0
19.03.2017 16:00:00 10,8 9,7 - - 0,0
19.03.2017 15:00:00 11,0 9,7 - - 0,0
19.03.2017 14:00:00 10,8 9,6 - - 0,0
19.03.2017 13:00:00 10,8 9,5 - - 0,0
19.03.2017 12:00:00 10,6 9,4 - - 0,0
19.03.2017 11:00:00 11,1 9,1 - - 0,0
19.03.2017 10:00:00 11,1 9,2 - - 0,0
19.03.2017 09:00:00 10,4 9,3 8,9 8,5 0,0
19.03.2017 08:00:00 10,5 9,3 - - 0,0
19.03.2017 07:00:00 10,1 9,3 - - 0,0
19.03.2017 06:00:00 9,9 8,9 - - 0,0
19.03.2017 05:00:00 10,0 8,8 - - 0,0
19.03.2017 04:00:00 10,0 8,8 - - 0,0
19.03.2017 03:00:00 10,1 8,7 - - 0,0
19.03.2017 02:00:00 9,5 9,3 - - 0,0
19.03.2017 01:00:00 9,9 9,4 - - 0,0
19.03.2017 00:00:00 9,9 9,9 - - 0,0
18.03.2017 23:00:00 9,8 9,8 - - 0,0
18.03.2017 22:00:00 9,6 9,6 - - 0,2
18.03.2017 21:00:00 9,4 9,3 - - 0,0
18.03.2017 20:00:00 9,6 9,3 - - 0,0
18.03.2017 19:00:00 9,8 9,5 - - 0,0
18.03.2017 18:00:00 10,0 9,6 - - 0,0
18.03.2017 17:00:00 10,1 9,6 - - 0,0
18.03.2017 16:00:00 10,2 9,8 - - 0,8
18.03.2017 15:00:00 10,0 9,4 - - 0,0
18.03.2017 14:00:00 10,0 9,4 - - 0,0
18.03.2017 13:00:00 9,8 9,4 - - 0,0
18.03.2017 12:00:00 9,8 9,3 - - 0,0
18.03.2017 11:00:00 10,3 9,7 - - 0,0
18.03.2017 10:00:00 9,9 9,4 - - 0,0
18.03.2017 09:00:00 9,9 9,3 8,7 8,5 0,0
18.03.2017 08:00:00 9,5 9,2 - - 0,2
18.03.2017 07:00:00 9,5 9,1 - - 0,2
18.03.2017 06:00:00 9,6 9,3 - - 0,4
18.03.2017 05:00:00 9,7 9,3 - - 0,2
18.03.2017 04:00:00 9,7 9,3 - - 0,4
18.03.2017 03:00:00 9,8 9,2 - - 0,0
18.03.2017 02:00:00 9,8 9,3 - - 0,0
18.03.2017 01:00:00 9,8 9,2 - - 0,0
18.03.2017 00:00:00 9,7 9,1 - - 0,0
17.03.2017 23:00:00 9,6 9,2 - - 1,2
17.03.2017 22:00:00 9,6 9,1 - - 0,2
17.03.2017 21:00:00 9,5 8,8 - - 0,0
17.03.2017 20:00:00 9,4 8,6 - - 0,0
17.03.2017 19:00:00 9,1 8,3 - - 1,2
17.03.2017 18:00:00 8,8 7,9 - - 2,8
17.03.2017 17:00:00 8,3 7,5 - - 4,6
17.03.2017 16:00:00 8,1 7,2 - - 3,0
17.03.2017 15:00:00 8,5 6,6 - - 0,2
17.03.2017 14:00:00 9,0 6,2 - - 0,0

tt = temperature
td = dewpoint
tt -20cm = temperature -20cm
tt -100cm = temperature -100cm
rr = precipitation

Next stations